Location: Aix-en-Ergny
(50.5839°N, 1.9996°E)
Time: 04:07:28
(UTC+00:00)

Cosmos 1674 - Pass Details

Date: 23 October 2019
Orbit: 496 x 518 km, 82.5° (Epoch: 19 November)

Event Time Altitude Azimuth Distance (km) Brightness Sun altitude
Rises 04:30:58 0° 176° (S) 2,573 6.2 -19.1°
Reaches altitude 10° 04:33:06 10° 172° (S) 1,695 5.3 -18.7°
Maximum altitude 04:36:43 51° 95° (E) 632 3.5 -18.2°
Drops below altitude 10° 04:40:22 10° 19° (NNE) 1,716 5.6 -17.6°
Sets 04:42:31 0° 15° (NNE) 2,608 6.5 -17.2°
